Weather History for Howell, MI

Change the Weather History Date:

Saturday, January 28, 2012

  Actual Average Record
Temperature  
Mean Temperature 30 °F -  
Max Temperature 34 °F 30 °F 59 °F (2002)
Min Temperature 27 °F 17 °F -10 °F (2014)
Degree Days  
Heating Degree Days 34    
Moisture  
Dew Point 27 °F    
Average Humidity 82    
Maximum Humidity 99    
Minimum Humidity 60    
Precipitation  
Precipitation 0.00 in - - ()
Sea Level Pressure  
Sea Level Pressure 29.81 in    
Wind  
Wind Speed 11 mph (SW)    
Max Wind Speed 31 mph    
Max Gust Speed 40 mph    
Visibility 6 miles    
Events Snow    
Averages and records for this station are not official NWS values.
T = Trace of Precipitation, MM = Missing Value Source: NWS Daily Summary

Daily Weather History Graph

Daily Weather History Graph

Search for Another Location

Airport:

Trip Planner

Search our weather history database for the weather conditions in past years. The results will help you decide how hot, cold, wet, or windy it might be!

Date:

Astronomy

Jan. 28, 2012 Rise Set
Actual Time 7:54 AM EST 5:43 PM EST
Civil Twilight 7:24 AM EST 6:13 PM EST
Nautical Twilight 6:50 AM EST 6:47 PM EST
Astronomical Twilight 6:17 AM EST 7:21 PM EST
Moon 10:07 AM EST (1/28) 11:40 PM EST (1/28)
Length of Visible Light 10h 49m
Length of Day
9h 49m
Waxing Crescent, 27% of the Moon is Illuminated
Jan 28
Waxing Crescent
Jan 30
First Quarter
Feb 7
Full
Feb 14
Last Quarter
Feb 21
New

Hourly Weather History & Observations

Time (EST) Temp. Windchill Dew Point Humidity Pressure Visibility Wind Dir Wind Speed Gust Speed Precip Events Conditions
12:15 AM 31.1 °F 27.7 °F 25.7 °F 80% 29.88 in 10.0 mi SSE 3.5 mph - N/A   Mostly Cloudy
12:34 AM 30.6 °F 27.1 °F 25.9 °F 83% 29.88 in 10.0 mi SSW 3.5 mph - N/A   Scattered Clouds
12:55 AM 31.5 °F 26.8 °F 26.2 °F 81% 29.87 in 10.0 mi South 4.6 mph - N/A   Mostly Cloudy
1:14 AM 32.0 °F 25.6 °F 26.4 °F 80% 29.85 in 10.0 mi South 6.9 mph - N/A   Overcast
1:34 AM 32.0 °F 25.6 °F 26.4 °F 80% 29.85 in 10.0 mi South 6.9 mph - N/A   Overcast
1:55 AM 32.2 °F 26.7 °F 26.2 °F 79% 29.84 in 10.0 mi South 5.8 mph - N/A   Overcast
2:15 AM 32.0 °F 26.4 °F 26.4 °F 80% 29.83 in 10.0 mi South 5.8 mph - N/A   Overcast
2:34 AM 32.2 °F 26.7 °F 26.4 °F 79% 29.83 in 10.0 mi South 5.8 mph - N/A   Overcast
2:55 AM 32.5 °F 27.1 °F 26.6 °F 79% 29.83 in 10.0 mi South 5.8 mph - N/A   Overcast
3:14 AM 32.5 °F 25.5 °F 27.1 °F 80% 29.82 in 10.0 mi South 8.1 mph - N/A   Overcast
3:35 AM 32.9 °F 25.9 °F 27.3 °F 80% 29.82 in 10.0 mi SSW 8.1 mph - N/A   Overcast
3:55 AM 33.1 °F 25.5 °F 28.8 °F 84% 29.82 in 4.0 mi SSW 9.2 mph - N/A Snow Light Snow
4:14 AM 32.4 °F 26.9 °F 30.0 °F 91% 29.80 in 2.5 mi SSW 5.8 mph - N/A Snow Light Snow
4:35 AM 32.0 °F 26.4 °F 30.7 °F 95% 29.80 in 3.0 mi SSW 5.8 mph - N/A Snow Light Snow
4:55 AM 32.0 °F 25.6 °F 31.1 °F 96% 29.79 in 3.0 mi South 6.9 mph - N/A Snow Light Snow
5:35 AM 32.2 °F 25.8 °F 31.6 °F 98% 29.76 in 2.5 mi South 6.9 mph - N/A Snow Light Snow
5:55 AM 32.2 °F 25.0 °F 31.6 °F 98% 29.75 in 3.0 mi South 8.1 mph - N/A Snow Light Snow
6:14 AM 32.4 °F 25.3 °F 32.0 °F 99% 29.74 in 3.0 mi South 8.1 mph - N/A Snow Light Snow
6:35 AM 32.5 °F 25.5 °F 32.0 °F 98% 29.73 in 3.0 mi South 8.1 mph - N/A Snow Light Snow
6:54 AM 32.5 °F 24.8 °F 32.0 °F 98% 29.73 in 4.0 mi South 9.2 mph - N/A Snow Light Snow
7:14 AM 32.9 °F 25.9 °F 32.0 °F 96% 29.72 in 4.0 mi South 8.1 mph - N/A   Overcast
7:35 AM 33.1 °F 26.1 °F 32.0 °F 96% 29.71 in 3.0 mi South 8.1 mph - N/A Snow Light Snow
7:54 AM 33.3 °F 25.1 °F 32.2 °F 96% 29.70 in 1.8 mi SSW 10.4 mph - N/A Snow Light Snow
8:14 AM 33.3 °F 27.1 °F 32.2 °F 96% 29.70 in 1.0 mi SSW 6.9 mph - N/A Snow Light Snow
8:35 AM 33.4 °F 26.6 °F 32.5 °F 96% 29.69 in 1.0 mi SSW 8.1 mph - N/A Snow Light Snow
8:54 AM 33.4 °F 25.4 °F 32.5 °F 96% 29.69 in 0.8 mi SSW 10.4 mph - N/A Snow Light Snow
9:15 AM 33.8 °F 25.8 °F 32.9 °F 96% 29.68 in 1.0 mi SSW 10.4 mph 16.1 mph N/A Snow Light Snow
9:35 AM 33.8 °F 25.3 °F 32.9 °F 96% 29.68 in 1.0 mi SW 11.5 mph 17.3 mph N/A Snow Light Snow
9:54 AM 33.8 °F 24.8 °F 32.7 °F 96% 29.68 in 1.5 mi SW 12.7 mph 19.6 mph N/A Snow Light Snow
10:15 AM 33.8 °F 25.8 °F 32.4 °F 94% 29.68 in 1.2 mi SW 10.4 mph 18.4 mph N/A Snow Light Snow
10:35 AM 33.8 °F 24.3 °F 32.2 °F 94% 29.68 in 10.0 mi SW 13.8 mph 25.3 mph N/A   Overcast
10:54 AM 34.2 °F 22.1 °F 32.0 °F 92% 29.69 in 7.0 mi WSW 23.0 mph 32.2 mph N/A   Overcast
11:15 AM 34.0 °F 22.1 °F 31.8 °F 92% 29.71 in 2.5 mi WSW 21.9 mph 32.2 mph N/A Snow Light Snow
11:34 AM 32.9 °F 21.0 °F 31.6 °F 95% 29.72 in 0.2 mi West 20.7 mph 32.2 mph N/A Snow Snow
11:54 AM 32.9 °F 19.8 °F 30.9 °F 92% 29.73 in 3.0 mi West 25.3 mph 33.4 mph N/A Snow Light Snow
12:15 PM 33.1 °F 20.6 °F 28.8 °F 84% 29.75 in 10.0 mi West 23.0 mph 38.0 mph N/A   Overcast
12:34 PM 33.4 °F 20.8 °F 26.2 °F 75% 29.76 in 10.0 mi West 24.2 mph 35.7 mph N/A   Mostly Cloudy
12:54 PM 33.6 °F 20.3 °F 24.8 °F 70% 29.77 in 10.0 mi West 27.6 mph 39.1 mph N/A   Scattered Clouds
1:15 PM 33.3 °F 19.1 °F 23.5 °F 68% 29.78 in 10.0 mi West 31.1 mph 39.1 mph N/A   Scattered Clouds
1:34 PM 33.4 °F 20.8 °F 24.1 °F 69% 29.79 in 10.0 mi West 24.2 mph 34.5 mph N/A   Clear
1:55 PM 34.0 °F 21.5 °F 23.0 °F 64% 29.80 in 10.0 mi West 24.2 mph 36.8 mph N/A   Mostly Cloudy
2:14 PM 34.0 °F 21.3 °F 22.6 °F 63% 29.82 in 10.0 mi West 25.3 mph 40.3 mph N/A   Overcast
2:34 PM 32.7 °F 19.9 °F 20.3 °F 60% 29.83 in 10.0 mi West 24.2 mph 38.0 mph N/A   Mostly Cloudy
2:55 PM 32.0 °F 19.2 °F 19.4 °F 60% 29.85 in 10.0 mi West 23.0 mph 34.5 mph N/A   Scattered Clouds
3:14 PM 31.8 °F 18.1 °F 19.9 °F 62% 29.86 in 10.0 mi West 26.5 mph 34.5 mph N/A   Mostly Cloudy
3:35 PM 31.3 °F 18.5 °F 20.1 °F 63% 29.88 in 7.0 mi West 21.9 mph 31.1 mph N/A Snow Light Snow
3:55 PM 30.2 °F 17.8 °F 22.3 °F 72% 29.90 in 3.0 mi West 19.6 mph 32.2 mph N/A Snow Light Snow
4:14 PM 27.5 °F 11.5 °F 24.6 °F 89% 29.91 in 0.2 mi West 29.9 mph 40.3 mph N/A Snow Heavy Snow
4:35 PM 28.0 °F 14.6 °F 23.5 °F 83% 29.92 in 5.0 mi West 20.7 mph 29.9 mph N/A Snow Light Snow
4:54 PM 28.6 °F 17.7 °F 23.9 °F 83% 29.93 in 4.0 mi West 13.8 mph 18.4 mph N/A Snow Light Snow
5:15 PM 28.4 °F 17.0 °F 22.1 °F 77% 29.95 in 10.0 mi West 15.0 mph 27.6 mph N/A   Scattered Clouds
5:35 PM 28.6 °F 18.7 °F 21.9 °F 76% 29.95 in 10.0 mi WSW 11.5 mph - N/A   Mostly Cloudy
5:54 PM 29.1 °F 16.0 °F 18.5 °F 65% 29.96 in 10.0 mi WSW 20.7 mph 31.1 mph N/A   Scattered Clouds
6:15 PM 28.8 °F 17.9 °F 18.0 °F 64% 29.97 in 10.0 mi WSW 13.8 mph 21.9 mph N/A   Clear
6:35 PM 29.1 °F 18.4 °F 18.7 °F 65% 29.98 in 10.0 mi WSW 13.8 mph 21.9 mph N/A   Mostly Cloudy
6:54 PM 29.3 °F 18.2 °F 19.0 °F 66% 29.98 in 10.0 mi WSW 15.0 mph 19.6 mph N/A   Overcast
7:15 PM 29.8 °F 18.0 °F 18.7 °F 63% 29.99 in 10.0 mi WSW 17.3 mph 23.0 mph N/A   Mostly Cloudy
7:34 PM 29.3 °F 18.2 °F 18.3 °F 64% 30.00 in 10.0 mi WSW 15.0 mph 19.6 mph N/A   Mostly Cloudy
7:54 PM 29.3 °F 18.2 °F 18.5 °F 64% 30.00 in 10.0 mi SW 15.0 mph 18.4 mph N/A   Mostly Cloudy
8:15 PM 29.3 °F 18.6 °F 18.3 °F 64% 30.00 in 10.0 mi SW 13.8 mph 23.0 mph N/A   Mostly Cloudy
8:34 PM 28.8 °F 16.6 °F 18.3 °F 65% 30.00 in 10.0 mi WSW 17.3 mph 24.2 mph N/A   Scattered Clouds
8:55 PM 28.4 °F 17.5 °F 18.1 °F 65% 30.00 in 10.0 mi WSW 13.8 mph 21.9 mph N/A   Scattered Clouds
9:14 PM 28.4 °F 17.0 °F 17.8 °F 64% 30.00 in 10.0 mi WSW 15.0 mph 23.0 mph N/A   Clear
9:35 PM 28.2 °F 17.7 °F 18.0 °F 65% 30.00 in 10.0 mi WSW 12.7 mph - N/A   Clear
9:55 PM 27.9 °F 17.3 °F 17.6 °F 65% 29.99 in 10.0 mi SW 12.7 mph 23.0 mph N/A   Clear
10:14 PM 27.3 °F 18.4 °F 17.6 °F 67% 29.99 in 10.0 mi SW 9.2 mph 19.6 mph N/A   Clear
10:35 PM 27.1 °F 16.4 °F 18.0 °F 68% 29.99 in 10.0 mi SW 12.7 mph 18.4 mph N/A   Scattered Clouds
10:54 PM 27.1 °F 16.4 °F 18.0 °F 68% 29.99 in 10.0 mi SW 12.7 mph 18.4 mph N/A   Scattered Clouds
11:15 PM 26.6 °F 16.2 °F 17.6 °F 69% 29.99 in 10.0 mi WSW 11.5 mph 17.3 mph N/A   Scattered Clouds
11:34 PM 26.6 °F 16.8 °F 17.8 °F 69% 29.99 in 10.0 mi SW 10.4 mph 17.3 mph N/A   Clear
11:54 PM 26.4 °F 16.0 °F 17.6 °F 69% 29.99 in 10.0 mi SW 11.5 mph 19.6 mph N/A   Clear